This demonstration page uses our WeatherBlox Daily Observations layout. Learn more.

Left ArrowRight Arrow

44.89941, -97.11507

Hourly Observations for June 8, 2016

Temp ( °F °C ) Dew Point ( °F °C ) Humidity (%) Winds ( mph kmh ) Pressure ( in mb ) Visibility ( mi km ) Precip ( " mm )
12:53 am 00:53 Clear 60 15.6 43 6.1 53 53 E 8 13 29.95 1014 10 16 0.00 0.00
1:53 am 01:53 Clear 59 15 42 5.6 54 54 E 8 13 29.94 1014 10 16 0.00 0.00
2:53 am 02:53 Cloudy 59 15 42 5.6 54 54 E 7 11 29.94 1014 10 16 0.00 0.00
3:53 am 03:53 Mostly Cloudy 60 15.6 41 5 50 50 ESE 8 13 29.93 1014 10 16 0.00 0.00
4:53 am 04:53 Mostly Cloudy 59 15 40 4.4 49 49 ESE 7 11 29.93 1013 10 16 0.00 0.00
5:53 am 05:53 Mostly Cloudy 58 14.4 41 5 53 53 SE 7 11 29.93 1014 10 16 0.00 0.00
6:53 am 06:53 Partly Cloudy 59 15 42 5.6 54 54 SE 6 9 29.94 1014 10 16 0.00 0.00
7:53 am 07:53 Sunny 63 17.2 43 6.1 48 48 SE 9 15 29.91 1013 10 16 0.00 0.00
8:53 am 08:53 Mostly Sunny 67 19.4 44 6.7 44 44 SE 12 19 29.91 1013 10 16 0.00 0.00
9:53 am 09:53 Cloudy 69 20.6 45 7.2 42 42 SSE 12 19 29.91 1013 10 16 0.00 0.00
10:53 am 10:53 Partly Cloudy 74 23.3 47 8.3 38 38 SE 10 17 29.88 1012 10 16 0.00 0.00
11:21 am 11:21 Partly Cloudy with Nearby Thunderstorms 73 22.8 45 7.2 37 37 SE 13 20 29.85 1011 10 16 0.00 0.00
11:36 am 11:36 Partly Cloudy 74 23.3 46 7.8 37 37 SE 12 19 29.83 1010 10 16 0.00 0.00
11:53 am 11:53 Mostly Cloudy with Light Rain 70 21.1 50 10 49 49 SSE 14 22 29.88 1012 10 16 0.00 0.03
12:53 pm 12:53 Mostly Sunny 76 24.4 49 9.4 39 39 SSE 17 28 29.85 1011 10 16 0.00 0.03
1:53 pm 13:53 Partly Cloudy 78 25.6 50 10 37 37 ESE 14 22 29.83 1010 10 16 0.00 0.00
2:53 pm 14:53 Mostly Sunny 81 27.2 51 10.6 35 35 SSE 15 24 29.81 1010 10 16 0.00 0.00
3:53 pm 15:53 Mostly Sunny 83 28.3 55 12.8 38 38 SSE 16 26 29.79 1009 10 16 0.00 0.00
4:53 pm 16:53 Sunny 82 27.8 54 12.2 38 38 SE 12 19 29.78 1008 10 16 0.00 0.00
5:53 pm 17:53 Sunny 81 27.2 54 12.2 39 39 SE 9 15 29.76 1008 10 16 0.00 0.00
6:53 pm 18:53 Sunny 82 27.8 55 12.8 40 40 ESE 7 11 29.74 1007 10 16 0.00 0.00
7:53 pm 19:53 Sunny 78 25.6 54 12.2 43 43 ESE 12 19 29.73 1007 10 16 0.00 0.00
8:53 pm 20:53 Sunny 74 23.3 53 11.7 48 48 E 10 17 29.73 1007 10 16 0.00 0.00
9:53 pm 21:53 Clear 72 22.2 53 11.7 52 52 ESE 12 19 29.73 1007 10 16 0.00 0.00
10:53 pm 22:53 Mostly Cloudy 71 21.7 55 12.8 57 57 ESE 10 17 29.74 1007 10 16 0.00 0.00
11:53 pm 23:53 Partly Cloudy 68 20 57 13.9 68 68 E 9 15 29.74 1007 10 16 0.00 0.00

Powered by AerisWeather